Fayetteville, NC

12:18 PM EDT on September 28, 2016 (GMT -0400)
Fayetteville Regional-Grannis

Weather History for KFAY - April, 2014

Change the Weather History Date:

Tuesday, April 8, 2014

  Actual Average Record
Temperature  
Mean Temperature 64 °F 61 °F  
Max Temperature 72 °F 73 °F 91 °F (1967)
Min Temperature 55 °F 49 °F 27 °F (2007)
Degree Days  
Heating Degree Days 1 6  
Month to date heating degree days 20 52  
Since 1 July heating degree days 2842 2621  
Cooling Degree Days 0 2  
Month to date cooling degree days 22 10  
Year to date cooling degree days 26 26  
Growing Degree Days 14 (Base 50)    
Moisture  
Dew Point 58 °F    
Average Humidity 73    
Maximum Humidity 93    
Minimum Humidity 53    
Precipitation  
Precipitation 0.01 in 0.11 in 1.70 in (1973)
Month to date precipitation 0.12 0.91  
Year to date precipitation 10.48 10.52  
Sea Level Pressure  
Sea Level Pressure 29.62 in    
Wind  
Wind Speed 9 mph (WSW)    
Max Wind Speed 20 mph    
Max Gust Speed 25 mph    
Visibility 9 miles    
Events Rain    
T = Trace of Precipitation, MM = Missing Value Source: NWS Daily Summary

Daily Weather History Graph

Daily Weather History Graph

Search for Another Location

Airport or City:

Trip Planner

Search our weather history database for the weather conditions in past years. The results will help you decide how hot, cold, wet, or windy it might be!

Date:

Astronomy

Apr. 08, 2014 Rise Set
Actual Time 6:52 AM EDT 7:42 PM EDT
Civil Twilight 6:27 AM EDT 8:08 PM EDT
Nautical Twilight 5:56 AM EDT 8:38 PM EDT
Astronomical Twilight 5:25 AM EDT 9:09 PM EDT
Moon 1:47 PM EDT (4/8) 2:51 AM EDT (4/8)
Length of Visible Light 13h 41m
Length of Day
12h 49m
Waxing Gibbous, 62% of the Moon is Illuminated
Apr 8
Waxing Gibbous
Apr 15
Full
Apr 22
Last Quarter
Apr 29
New
May 6
First Quarter

Hourly Weather History & Observations

Time (EDT) Temp. Dew Point Humidity Pressure Visibility Wind Dir Wind Speed Gust Speed Precip Events Conditions
12:53 AM 64.0 °F 61.0 °F 90% 29.68 in 10.0 mi South 12.7 mph - N/A   Mostly Cloudy
1:53 AM 66.0 °F 62.1 °F 87% 29.66 in 10.0 mi South 15.0 mph - N/A   Overcast
2:05 AM 66.9 °F 62.1 °F 84% 29.67 in 10.0 mi South 18.4 mph 24.2 mph N/A   Overcast
2:53 AM 66.9 °F 63.0 °F 87% 29.65 in 10.0 mi SSW 15.0 mph - 0.00 in   Overcast
3:20 AM 66.9 °F 63.0 °F 87% 29.65 in 10.0 mi SSW 18.4 mph 25.3 mph 0.01 in   Overcast
3:53 AM 66.9 °F 63.0 °F 87% 29.62 in 10.0 mi SSW 10.4 mph 21.9 mph 0.01 in   Overcast
4:53 AM 66.0 °F 63.0 °F 90% 29.60 in 7.0 mi SW 10.4 mph - N/A   Overcast
5:53 AM 66.0 °F 63.0 °F 90% 29.60 in 10.0 mi WSW 6.9 mph - N/A   Overcast
6:53 AM 64.9 °F 63.0 °F 93% 29.62 in 8.0 mi SSW 8.1 mph - 0.00 in Rain Light Rain
7:53 AM 64.9 °F 63.0 °F 93% 29.62 in 6.0 mi South 9.2 mph - 0.00 in   Overcast
8:53 AM 66.0 °F 64.0 °F 93% 29.61 in 7.0 mi South 11.5 mph - N/A   Overcast
9:53 AM 66.9 °F 64.0 °F 90% 29.60 in 8.0 mi SSW 9.2 mph - N/A   Overcast
10:12 AM 66.9 °F 64.0 °F 90% 29.61 in 8.0 mi SW 9.2 mph - N/A   Overcast
10:53 AM 68.0 °F 64.0 °F 87% 29.61 in 10.0 mi WSW 11.5 mph - N/A   Overcast
11:17 AM 69.1 °F 62.1 °F 78% 29.62 in 10.0 mi SW 15.0 mph - N/A   Overcast
11:48 AM 69.8 °F 60.8 °F 73% 29.61 in 10.0 mi WSW 11.5 mph - N/A   Mostly Cloudy
11:53 AM 70.0 °F 62.1 °F 76% 29.60 in 10.0 mi SW 12.7 mph - N/A   Mostly Cloudy
12:53 PM 70.0 °F 57.9 °F 65% 29.58 in 10.0 mi West 15.0 mph - N/A   Scattered Clouds
1:53 PM 71.1 °F 54.0 °F 55% 29.58 in 10.0 mi West 9.2 mph - N/A   Partly Cloudy
2:53 PM 70.0 °F 55.0 °F 59% 29.58 in 10.0 mi NNW 11.5 mph - N/A   Mostly Cloudy
3:53 PM 68.0 °F 53.1 °F 59% 29.58 in 10.0 mi North 10.4 mph - N/A   Clear
4:53 PM 70.0 °F 54.0 °F 57% 29.58 in 10.0 mi NW 9.2 mph - N/A   Clear
5:53 PM 68.0 °F 51.1 °F 55% 29.59 in 10.0 mi WSW 4.6 mph - N/A   Scattered Clouds
6:53 PM 66.9 °F 50.0 °F 54% 29.60 in 10.0 mi NW 5.8 mph - N/A   Clear
7:53 PM 64.9 °F 48.9 °F 56% 29.62 in 10.0 mi NW 4.6 mph - N/A   Clear
8:53 PM 63.0 °F 48.9 °F 60% 29.64 in 10.0 mi Calm Calm - N/A   Clear
9:53 PM 60.1 °F 51.1 °F 72% 29.65 in 10.0 mi Calm Calm - N/A   Partly Cloudy
10:53 PM 57.9 °F 52.0 °F 81% 29.64 in 10.0 mi Calm Calm - N/A   Clear
11:53 PM 57.0 °F 51.1 °F 81% 29.64 in 10.0 mi NNW 4.6 mph - N/A   Clear